,

(GMT )
Prerov

Weather History for LKPO - September, 2012

Change the Weather History Date:

Sunday, September 16, 2012

  Actual Average Record
Temperature  
Mean Temperature 60 °F -  
Max Temperature 66 °F - - ()
Min Temperature 53 °F - - ()
Degree Days  
Heating Degree Days 6    
Growing Degree Days 10 (Base 50)    
Moisture  
Dew Point 51 °F    
Average Humidity 78    
Maximum Humidity 94    
Minimum Humidity 52    
Precipitation  
Precipitation 0.00 in - - ()
Sea Level Pressure  
Sea Level Pressure 30.09 in    
Wind  
Wind Speed 2 mph ()    
Max Wind Speed 6 mph    
Max Gust Speed -    
Visibility 6.2 miles    
Events      
T = Trace of Precipitation, MM = Missing Value Source: Averaged Metar Reports

Daily Weather History Graph

Daily Weather History Graph

Search for Another Location

Airport or City:

Trip Planner

Search our weather history database for the weather conditions in past years. The results will help you decide how hot, cold, wet, or windy it might be!

Date:

Astronomy

Sep. 16, 2012 Rise Set
Actual Time 6:28 AM CEST 7:00 PM CEST
Civil Twilight 5:56 AM CEST 7:32 PM CEST
Nautical Twilight 5:18 AM CEST 8:10 PM CEST
Astronomical Twilight 4:38 AM CEST 8:50 PM CEST
Moon 6:54 AM CEST (9/16) 6:45 PM CEST (9/16)
Length of Visible Light 13h 36m
Length of Day
12h 32m
New Moon, 0% of the Moon is Illuminated
Sep 16
New Moon
Sep 22
First Quarter
Sep 30
Full
Oct 8
Last Quarter
Oct 15
New

Hourly Weather History & Observations

Time (CEST) Temp. Dew Point Humidity Pressure Visibility Wind Dir Wind Speed Gust Speed Precip Events Conditions
12:00 AM 55.4 °F 50.0 °F 82% 30.09 in - Variable 2.3 mph - N/A   Clear
1:00 AM 53.6 °F 51.8 °F 94% 30.09 in - WNW 2.3 mph - N/A   Clear
2:00 AM 53.6 °F 50.0 °F 88% 30.09 in - Calm Calm - N/A   Clear
3:00 AM 55.4 °F 50.0 °F 82% 30.09 in - NW 3.5 mph - N/A   Clear
4:00 AM 53.6 °F 51.8 °F 94% 30.09 in - Calm Calm - N/A   Clear
5:00 AM 53.6 °F 51.8 °F 94% 30.09 in - Calm Calm - N/A   Clear
6:00 AM 53.6 °F 51.8 °F 94% 30.12 in - South 1.2 mph - N/A   Clear
7:00 AM 53.6 °F 51.8 °F 94% 30.12 in - South 2.3 mph - N/A   Clear
8:00 AM 53.6 °F 51.8 °F 94% 30.12 in - East 1.2 mph - N/A   Clear
9:00 AM 55.4 °F 51.8 °F 88% 30.12 in - Variable 2.3 mph - N/A   Clear
10:00 AM 57.2 °F 51.8 °F 82% 30.15 in - Variable 1.2 mph - N/A   Clear
11:00 AM 59.0 °F 51.8 °F 77% 30.12 in - Variable 1.2 mph - N/A   Clear
1:00 PM 62.6 °F 50.0 °F 63% 30.12 in 6.2 mi East 3.5 mph - N/A   Mostly Cloudy
2:00 PM 64.4 °F 50.0 °F 59% 30.09 in 6.2 mi Variable 2.3 mph - N/A   Mostly Cloudy
3:00 PM 66.2 °F 50.0 °F 56% 30.09 in 6.2 mi Variable 2.3 mph - N/A   Scattered Clouds
4:00 PM 66.2 °F 50.0 °F 56% 30.06 in 6.2 mi NE 5.8 mph - N/A   Partly Cloudy
5:00 PM 66.2 °F 48.2 °F 52% 30.06 in 6.2 mi East 5.8 mph - N/A   Partly Cloudy
6:00 PM 64.4 °F 48.2 °F 56% 30.06 in 6.2 mi East 5.8 mph - N/A   Partly Cloudy
7:00 PM 60.8 °F 50.0 °F 68% 30.06 in - East 5.8 mph - N/A   Clear
8:00 PM 57.2 °F 50.0 °F 77% 30.06 in - East 5.8 mph - N/A   Clear